This demonstration page uses our WeatherBlox Daily Observations layout. Learn more.

39.92423, -83.80882

Hourly Observations for June 15, 2019

Temp ( °F °C ) Dew Point ( °F °C ) Humidity (%) Winds ( mph kmh ) Pressure ( in mb ) Visibility ( mi km ) Precip ( " mm )
12:56 am 00:56 Mostly Clear 65 18.3 51 10.6 61 61 SSW 7 11 30.01 1016 10 16.0934 0 0
1:56 am 01:56 Cloudy 64 17.8 51 10.6 63 63 SW 9 15 30.03 1017 10 16.0934 0 0
2:56 am 02:56 Cloudy with Light Rain 62 16.7 53 11.7 73 73 S 3 6 30.01 1016 10 16.0934 0 0.0254
3:56 am 03:56 Cloudy 63 17.2 52 11.1 68 68 S 6 9 30 1016 10 16.0934 0 0.0254
4:56 am 04:56 Cloudy 62 16.7 53 11.7 73 73 S 5 7 30.01 1016 10 16.0934 0 0.0254
5:56 am 05:56 Cloudy 62 16.7 53 11.7 73 73 S 8 13 30 1016 10 16.0934 0 0
6:56 am 06:56 Cloudy with Light Rain 62 16.7 54 12.2 75 75 SW 12 19 30.02 1017 10 16.0934 0 0.0254
7:56 am 07:56 Cloudy 62 16.7 55 12.8 78 78 S 7 11 30 1016 10 16.0934 0 0.0254
8:56 am 08:56 Mostly Cloudy 64 17.8 56 13.3 75 75 SSW 9 15 29.99 1016 10 16.0934 0 0.0254
9:56 am 09:56 Mostly Sunny 69 20.6 57 13.9 66 66 SW 14 22 29.98 1015 10 16.0934 0 0
10:56 am 10:56 Partly Cloudy 69 20.6 59 15 70 70 SSW 12 19 29.97 1015 10 16.0934 0 0.0254
11:56 am 11:56 Sunny 72 22.2 59 15 64 64 SW 20 31 29.96 1015 10 16.0934 0 0
12:56 pm 12:56 Sunny 71 21.7 60 15.6 68 68 SW 16 26 29.97 1015 10 16.0934 0 0
1:56 pm 13:56 Cloudy with Light Rain 69 20.6 62 16.7 78 78 SW 13 20 29.98 1015 10 16.0934 0 0.0254
2:56 pm 14:56 Cloudy with Rain 67 19.4 63 17.2 87 87 WSW 7 11 29.98 1015 10 16.0934 0.01 0.254
3:56 pm 15:56 Mostly Cloudy 66 18.9 64 17.8 93 93 S 7 11 29.94 1014 10 16.0934 0.07 1.778
4:56 pm 16:56 Partly Cloudy 69 20.6 66 18.9 90 90 SSW 8 13 29.9 1013 10 16.0934 0 0.0254
5:56 pm 17:56 Mostly Cloudy 70 21.1 67 19.4 90 90 SSW 13 20 29.91 1013 10 16.0934 0 0
6:56 pm 18:56 Cloudy 68 20 66 18.9 93 93 S 5 7 29.89 1012 10 16.0934 0 0
7:56 pm 19:56 Cloudy 67 19.4 67 19.4 100 100 SSE 6 9 29.86 1011 10 16.0934 0 0.0254
8:56 pm 20:56 Cloudy with Light Rain 68 20 68 20 100 100 SSE 12 19 29.82 1010 8 12.87472 0.02 0.508
9:56 pm 21:56 Cloudy with Light Rain 68 20 68 20 100 100 SSE 9 15 29.82 1010 10 16.0934 0.07 1.778
10:56 pm 22:56 Cloudy with Light Rain 69 20.6 68 20 96 96 S 9 15 29.82 1010 10 16.0934 0.07 1.778
11:56 pm 23:56 Cloudy with Heavy Rain 67 19.4 67 19.4 100 100 SSW 12 19 29.81 1009 6 9.65604 0.18 4.572

Powered by AerisWeather